EW3370 Weather Reports


Display with metric or nautical units.
time (UTC)temp
F
wind
direction
speed
MPH
gust
MPH
rain 1hr
in
rain 24hr
in
rain mn
in
humidity
%
barometer
mb
20260831093525 70 176 0.0 0.0 0.00 0.00 0.00 90 1011.3
20260831093050 70 175 0.0 0.0 0.00 0.00 0.00 89 1011.3
20260831092536 70 175 0.0 0.0 0.00 0.00 0.00 89 1011.3
20260831092037 70 175 0.0 0.0 0.00 0.00 0.00 89 1011.4
20260831091519 70 175 0.0 0.0 0.00 0.00 0.00 89 1011.3
20260831091033 70 175 0.0 0.0 0.00 0.00 0.00 89 1011.3
20260831090518 70 175 0.0 0.0 0.00 0.00 0.00 89 1011.3
20260831090038 71 175 0.0 0.0 0.00 0.00 0.00 89 1011.2
20260831085519 71 175 0.0 0.0 0.00 0.00 0.00 89 1011.3
20260831085022 71 175 0.0 0.0 0.00 0.00 0.00 89 1011.3
20260831084524 71 190 0.0 0.0 0.00 0.00 0.00 89 1011.4
20260831084022 71 190 0.0 0.0 0.00 0.00 0.00 89 1011.4
20260831083528 71 190 0.0 0.0 0.00 0.00 0.00 89 1011.4
20260831083026 71 190 0.0 0.0 0.00 0.00 0.00 89 1011.4
20260831082520 71 190 0.0 0.0 0.00 0.00 0.00 89 1011.4
20260831082024 71 190 0.0 0.0 0.00 0.00 0.00 89 1011.4
20260831081527 71 190 0.0 0.0 0.00 0.00 0.00 89 1011.4
20260831081029 71 190 0.0 0.0 0.00 0.00 0.00 90 1011.4
20260831080527 71 190 0.0 0.0 0.00 0.00 0.00 90 1011.4
20260831080046 72 190 0.0 1.0 0.00 0.00 0.00 90 1011.5
20260831075520 72 190 0.0 1.0 0.00 0.00 0.00 90 1011.5
20260831075023 72 192 0.0 0.0 0.00 0.00 0.00 90 1011.5
20260831074524 72 193 0.0 0.0 0.00 0.00 0.00 90 1011.6
20260831074033 72 193 0.0 0.0 0.00 0.00 0.00 90 1011.5
20260831073530 72 193 0.0 0.0 0.00 0.00 0.00 90 1011.5
20260831073058 72 194 0.0 0.0 0.00 0.00 0.00 90 1011.5
20260831072522 72 195 0.0 0.0 0.00 0.00 0.00 91 1011.5
20260831072024 72 195 0.0 0.0 0.00 0.00 0.00 91 1011.4
20260831071520 72 195 0.0 0.0 0.00 0.00 0.00 91 1011.5
20260831071027 71 195 0.0 0.0 0.00 0.00 0.00 92 1011.5
20260831070530 71 195 0.0 0.0 0.00 0.00 0.00 91 1011.4
20260831070034 71 195 0.0 0.0 0.00 0.00 0.00 92 1011.4
20260831065536 71 195 0.0 0.0 0.00 0.00 0.00 91 1011.4
20260831065019 71 195 0.0 0.0 0.00 0.00 0.00 91 1011.4
20260831064546 71 195 0.0 0.0 0.00 0.00 0.00 91 1011.3
20260831064029 71 194 0.0 0.0 0.00 0.00 0.00 91 1011.3
20260831063529 70 194 0.0 0.0 0.00 0.00 0.00 90 1011.3
20260831063024 70 194 0.0 0.0 0.00 0.00 0.00 90 1011.2
20260831062523 70 194 0.0 0.0 0.00 0.00 0.00 90 1011.2
20260831062022 70 194 0.0 0.0 0.00 0.00 0.00 89 1011.2
20260831061526 71 194 0.0 0.0 0.00 0.00 0.00 89 1011.3
20260831061029 71 194 0.0 0.0 0.00 0.00 0.00 89 1011.2
20260831060538 71 194 0.0 0.0 0.00 0.00 0.00 89 1011.1
20260831060026 71 193 0.0 0.0 0.00 0.00 0.00 89 1011.1
20260831055522 71 193 0.0 0.0 0.00 0.00 0.00 89 1011.2
20260831055024 71 192 0.0 0.0 0.00 0.00 0.00 89 1011.3
20260831054550 71 192 0.0 0.0 0.00 0.00 0.00 89 1011.3
20260831054032 71 192 0.0 0.0 0.00 0.00 0.00 89 1011.3
20260831053541 71 192 0.0 0.0 0.00 0.00 0.00 88 1011.3
20260831053020 71 192 0.0 0.0 0.00 0.00 0.00 88 1011.2
20260831052528 72 192 0.0 0.0 0.00 0.00 0.00 89 1011.2
20260831052031 72 192 0.0 0.0 0.00 0.00 0.00 89 1011.2
20260831051531 72 192 0.0 0.0 0.00 0.00 0.00 88 1011.2
20260831051037 72 192 0.0 0.0 0.00 0.00 0.00 88 1011.2
20260831050518 72 192 0.0 0.0 0.00 0.00 0.00 88 1011.2
20260831050038 72 192 0.0 0.0 0.00 0.00 0.00 87 1011.2
20260831045526 72 192 0.0 0.0 0.00 0.00 0.00 87 1011.1
20260831045032 72 192 0.0 0.0 0.00 0.00 0.00 87 1011.1
20260831044528 72 192 0.0 0.0 0.00 0.00 0.00 87 1011.2
20260831044026 72 192 0.0 0.0 0.00 0.00 0.00 87 1011.0
20260831043528 73 191 0.0 0.0 0.00 0.00 0.00 87 1011.0
20260831043026 73 191 0.0 0.0 0.00 0.00 0.00 86 1011.0
20260831042533 73 192 0.0 0.0 0.00 0.00 0.00 86 1011.0
20260831042019 73 192 0.0 0.0 0.00 0.00 0.00 86 1011.0
20260831041546 73 192 0.0 0.0 0.00 0.00 0.00 86 1010.9
20260831041030 73 192 0.0 0.0 0.00 0.00 0.00 86 1010.9
20260831040538 73 192 0.0 0.0 0.00 0.00 0.00 86 1010.9
20260831040021 73 192 0.0 0.0 0.00 0.00 0.00 86 1010.9
20260831035528 73 192 0.0 0.0 0.00 0.00 0.00 86 1010.8
20260831035031 73 192 0.0 0.0 0.00 0.00 0.00 85 1010.8
20260831034532 73 192 0.0 0.0 0.00 0.00 0.00 85 1010.8
20260831034029 74 192 0.0 0.0 0.00 0.00 0.00 85 1010.7
20260831033548 74 192 0.0 0.0 0.00 0.00 0.00 85 1010.7
20260831033023 74 192 0.0 0.0 0.00 0.00 0.00 85 1010.6
20260831032526 74 193 0.0 0.0 0.00 0.00 0.00 85 1010.5
20260831032022 74 193 0.0 0.0 0.00 0.00 0.00 85 1010.4
20260831031524 74 194 0.0 0.0 0.00 0.00 0.00 85 1010.4
20260831031028 74 194 0.0 0.0 0.00 0.00 0.00 85 1010.3
20260831030532 74 194 0.0 0.0 0.00 0.00 0.00 84 1010.3
20260831030018 74 197 0.0 0.0 0.00 0.00 0.00 84 1010.3
20260831025524 74 198 0.0 0.0 0.00 0.00 0.00 84 1010.2
20260831025026 75 198 0.0 0.0 0.00 0.00 0.00 84 1010.2
20260831024525 75 198 0.0 1.0 0.00 0.00 0.00 84 1010.1
20260831024035 75 189 0.0 1.0 0.00 0.00 0.00 83 1010.1
20260831023520 75 190 0.0 0.0 0.00 0.00 0.00 83 1010.1
20260831023030 75 191 0.0 0.0 0.00 0.00 0.00 82 1010.0
20260831022538 75 191 0.0 0.0 0.00 0.00 0.00 82 1010.0
20260831022020 76 191 0.0 0.0 0.00 0.00 0.00 82 1010.0
20260831021524 76 202 0.0 2.0 0.00 0.00 0.00 82 1009.9
20260831021034 76 219 0.0 2.0 0.00 0.00 0.00 82 1009.8
20260831020541 77 210 0.0 5.0 0.00 0.00 0.00 82 1009.8
20260831020038 77 203 2.0 5.0 0.00 0.00 0.00 81 1009.8
20260831015546 77 201 1.0 5.0 0.00 0.00 0.00 81 1009.7
20260831015029 78 217 1.0 4.0 0.00 0.00 0.00 81 1009.7
20260831014531 78 207 0.0 6.0 0.00 0.00 0.00 81 1009.7
20260831014038 78 202 2.0 6.0 0.00 0.00 0.00 80 1009.6
20260831013524 78 225 3.0 6.0 0.00 0.00 0.00 80 1009.6
20260831013035 79 201 1.0 6.0 0.00 0.00 0.00 80 1009.7
20260831012520 79 217 0.0 5.0 0.00 0.00 0.00 79 1009.7
20260831012021 79 232 2.0 4.0 0.00 0.00 0.00 78 1009.7
20260831011525 80 197 0.0 5.0 0.00 0.00 0.00 78 1009.8
20260831011028 80 197 2.0 7.0 0.00 0.00 0.00 77 1009.8
20260831010526 80 238 1.0 7.0 0.00 0.00 0.00 77 1009.8
20260831010028 80 186 1.0 6.0 0.00 0.00 0.00 77 1009.8
20260831005530 81 229 2.0 6.0 0.00 0.00 0.00 77 1009.8
20260831005043 81 218 1.0 7.0 0.00 0.00 0.00 77 1009.9
20260831004546 81 199 2.0 8.0 0.00 0.00 0.00 76 1009.9
20260831004032 81 240 2.0 8.0 0.00 0.00 0.00 75 1009.9
20260831003526 82 209 1.0 7.0 0.00 0.00 0.00 73 1009.9
20260831003027 82 218 1.0 6.0 0.00 0.00 0.00 73 1010.0
20260831002532 83 209 2.0 7.0 0.00 0.00 0.00 72 1010.0
20260831002030 83 225 2.0 7.0 0.00 0.00 0.00 71 1010.0
20260831001537 83 200 1.0 6.0 0.00 0.00 0.00 71 1009.9
20260831001020 83 216 2.0 7.0 0.00 0.00 0.00 71 1009.9
20260831000518 83 200 1.0 7.0 0.00 0.00 0.00 70 1009.9
20260831000028 83 209 1.0 7.0 0.00 0.00 0.00 70 1009.9
20260830235554 83 221 1.0 8.0 0.00 0.00 0.00 70 1009.9
20260830235022 83 217 1.0 8.0 0.00 0.00 0.00 70 1009.8
20260830234547 83 209 1.0 8.0 0.00 0.00 0.00 70 1009.8
20260830234026 83 215 3.0 8.0 0.00 0.00 0.00 69 1009.9
20260830233532 83 189 1.0 7.0 0.00 0.00 0.00 70 1010.0
20260830233032 83 209 2.0 7.0 0.00 0.00 0.00 70 1010.0
20260830232526 84 190 2.0 7.0 0.00 0.00 0.00 70 1010.1
20260830232035 84 212 1.0 6.0 0.00 0.00 0.00 70 1010.0
20260830231521 84 263 1.0 8.0 0.00 0.00 0.00 71 1010.0
20260830231018 83 213 2.0 8.0 0.00 0.00 0.00 71 1009.9
20260830230518 84 239 4.0 9.0 0.00 0.00 0.00 70 1010.0
20260830230045 84 209 3.0 10.0 0.00 0.00 0.00 70 1010.0
20260830225522 84 221 3.0 10.0 0.00 0.00 0.00 70 1010.0
20260830225051 84 224 2.0 7.0 0.00 0.00 0.00 70 1010.1
20260830224532 84 245 3.0 9.0 0.00 0.00 0.00 70 1010.1
20260830224039 84 198 3.0 9.0 0.00 0.00 0.00 70 1010.2
20260830223523 84 200 5.0 8.0 0.00 0.00 0.00 70 1010.2
20260830223028 84 198 3.0 8.0 0.00 0.00 0.00 70 1010.3
20260830222534 84 275 3.0 9.0 0.00 0.00 0.00 69 1010.4
20260830222045 85 273 4.0 9.0 0.00 0.00 0.00 69 1010.5
20260830221549 85 248 2.0 7.0 0.00 0.00 0.00 69 1010.5
20260830221034 85 205 2.0 6.0 0.00 0.00 0.00 68 1010.6
20260830220518 85 266 2.0 7.0 0.00 0.00 0.00 69 1010.6
20260830220024 85 213 1.0 7.0 0.00 0.00 0.00 69 1010.7
20260830215529 85 179 2.0 7.0 0.00 0.00 0.00 70 1010.6
20260830215025 84 202 3.0 7.0 0.00 0.00 0.00 69 1010.6
20260830214520 84 215 3.0 7.0 0.00 0.00 0.00 70 1010.7
20260830214046 85 198 2.0 8.0 0.00 0.00 0.00 69 1010.8
20260830213521 85 213 2.0 9.0 0.00 0.00 0.00 69 1010.8
20260830213030 85 212 3.0 10.0 0.00 0.00 0.00 70 1010.8
20260830212520 85 237 4.0 10.0 0.00 0.00 0.00 69 1010.8
20260830212046 84 227 3.0 8.0 0.00 0.00 0.00 70 1011.0
20260830211529 84 256 1.0 8.0 0.00 0.00 0.00 70 1011.0
20260830211025 84 217 3.0 7.0 0.00 0.00 0.00 71 1011.1
20260830210538 84 192 3.0 9.0 0.00 0.00 0.00 71 1011.1
20260830210044 84 212 3.0 9.0 0.00 0.00 0.00 70 1011.2
20260830205525 85 211 3.0 9.0 0.00 0.00 0.00 69 1011.2
20260830205028 85 205 4.0 9.0 0.00 0.00 0.00 68 1011.2
20260830204533 85 160 2.0 8.0 0.00 0.00 0.00 69 1011.2
20260830204028 84 185 3.0 10.0 0.00 0.00 0.00 69 1011.2
20260830203547 84 160 2.0 10.0 0.00 0.00 0.00 69 1011.2
20260830203046 85 288 1.0 8.0 0.00 0.00 0.00 69 1011.2
20260830202529 85 242 1.0 8.0 0.00 0.00 0.00 69 1011.2
20260830202030 85 198 3.0 7.0 0.00 0.00 0.00 69 1011.2
20260830201531 84 272 2.0 8.0 0.00 0.00 0.00 70 1011.2
20260830201029 84 226 3.0 8.0 0.00 0.00 0.00 69 1011.2
20260830200531 85 193 2.0 7.0 0.00 0.00 0.00 69 1011.3
20260830200027 85 303 3.0 7.0 0.00 0.00 0.00 69 1011.3
20260830195523 85 209 2.0 9.0 0.00 0.00 0.00 70 1011.4
20260830195024 84 210 3.0 9.0 0.00 0.00 0.00 70 1011.3
20260830194519 84 222 3.0 8.0 0.00 0.00 0.00 70 1011.3
20260830194025 84 188 3.0 8.0 0.00 0.00 0.00 70 1011.4
20260830193528 84 198 2.0 9.0 0.00 0.00 0.00 70 1011.4
20260830193055 84 221 3.0 9.0 0.00 0.00 0.00 70 1011.5
20260830192535 84 211 2.0 9.0 0.00 0.00 0.00 70 1011.5
20260830192018 84 198 3.0 8.0 0.00 0.00 0.00 70 1011.5
20260830191548 84 193 4.0 8.0 0.00 0.00 0.00 69 1011.4
20260830191038 84 211 3.0 8.0 0.00 0.00 0.00 69 1011.6
20260830190537 85 223 3.0 8.0 0.00 0.00 0.00 68 1011.6
20260830190022 85 209 2.0 8.0 0.00 0.00 0.00 67 1011.6
20260830185524 85 231 3.0 8.0 0.00 0.00 0.00 68 1011.6
20260830185030 85 193 1.0 6.0 0.00 0.00 0.00 69 1011.7
20260830184534 85 184 1.0 7.0 0.00 0.00 0.00 69 1011.7
20260830184059 85 212 2.0 7.0 0.00 0.00 0.00 68 1011.8
20260830183526 85 200 0.0 6.0 0.00 0.00 0.00 69 1011.8
20260830183032 84 109 0.0 6.0 0.00 0.00 0.00 71 1011.7
20260830182532 84 177 1.0 7.0 0.00 0.00 0.00 71 1011.7
20260830182034 84 210 0.0 7.0 0.00 0.00 0.00 71 1011.7
20260830181528 84 196 0.0 7.0 0.00 0.00 0.00 72 1011.7
20260830181050 83 232 1.0 7.0 0.00 0.00 0.00 72 1011.7
20260830180530 83 215 1.0 7.0 0.00 0.00 0.00 72 1011.6
20260830180033 83 167 1.0 6.0 0.00 0.00 0.00 72 1011.7
20260830175536 83 198 1.0 6.0 0.00 0.00 0.00 72 1011.7
20260830175033 83 147 1.0 6.0 0.00 0.00 0.00 71 1011.6
20260830174533 83 229 1.0 5.0 0.00 0.00 0.00 71 1011.6
20260830174028 83 167 0.0 7.0 0.00 0.00 0.00 72 1011.5
20260830173531 83 220 1.0 7.0 0.00 0.00 0.00 71 1011.5
20260830173034 83 194 0.0 3.0 0.00 0.00 0.00 72 1011.5
20260830172531 83 215 0.0 0.0 0.00 0.00 0.00 73 1011.4
20260830172019 82 186 0.0 0.0 0.00 0.00 0.00 73 1011.4
20260830171527 82 249 0.0 0.0 0.00 0.00 0.00 74 1011.3
20260830171027 82 201 0.0 0.0 0.00 0.00 0.00 74 1011.2
20260830170531 82 207 0.0 0.0 0.00 0.00 0.00 74 1011.2
20260830170039 82 213 0.0 0.0 0.00 0.00 0.00 74 1011.2
20260830165524 82 207 0.0 0.0 0.00 0.00 0.00 74 1011.2
20260830165029 81 201 0.0 2.0 0.00 0.00 0.00 75 1011.3
20260830164536 81 211 0.0 3.0 0.00 0.00 0.00 76 1011.2
20260830164034 81 206 0.0 3.0 0.00 0.00 0.00 76 1011.3
20260830163518 81 190 0.0 0.0 0.00 0.00 0.00 77 1011.3
20260830163024 81 211 0.0 0.0 0.00 0.00 0.00 77 1011.3
20260830162551 80 221 0.0 0.0 0.00 0.00 0.00 77 1011.3
20260830162031 80 179 0.0 0.0 0.00 0.00 0.00 77 1011.3
20260830161519 80 180 0.0 4.0 0.00 0.00 0.00 77 1011.2
20260830161026 80 213 1.0 4.0 0.00 0.00 0.00 77 1011.2
20260830160527 80 202 0.0 0.0 0.00 0.00 0.00 77 1011.2
20260830160023 80 186 0.0 0.0 0.00 0.00 0.00 78 1011.1
20260830155519 80 178 0.0 0.0 0.00 0.00 0.00 78 1011.1
20260830155037 80 161 0.0 0.0 0.00 0.00 0.00 78 1011.2
20260830154521 79 111 0.0 0.0 0.00 0.00 0.00 79 1011.1
20260830154020 79 111 0.0 0.0 0.00 0.00 0.00 80 1011.1
20260830153523 78 111 0.0 0.0 0.00 0.00 0.00 80 1011.1
20260830153028 78 111 0.0 0.0 0.00 0.00 0.00 81 1011.1
20260830152530 77 111 0.0 0.0 0.00 0.00 0.00 81 1011.1
20260830152032 77 113 0.0 0.0 0.00 0.00 0.00 81 1011.2
20260830151553 77 114 0.0 0.0 0.00 0.00 0.00 82 1011.2
20260830151037 77 114 0.0 0.0 0.00 0.00 0.00 82 1011.2
20260830150528 76 114 0.0 0.0 0.00 0.00 0.00 83 1011.3
20260830150031 76 113 0.0 0.0 0.00 0.00 0.00 83 1011.2
20260830145538 76 113 0.0 0.0 0.00 0.00 0.00 85 1011.3
20260830145046 75 113 0.0 0.0 0.00 0.00 0.00 86 1011.2
20260830144554 75 113 0.0 0.0 0.00 0.00 0.00 87 1011.2
20260830144036 74 114 0.0 0.0 0.00 0.00 0.00 87 1011.1
20260830143559 74 106 0.0 0.0 0.00 0.00 0.00 88 1011.2
20260830143033 74 108 0.0 0.0 0.00 0.00 0.00 88 1011.1
20260830142521 74 111 0.0 0.0 0.00 0.00 0.00 88 1011.1
20260830142025 74 113 0.0 0.0 0.00 0.00 0.00 89 1011.1
20260830141523 73 114 0.0 0.0 0.00 0.00 0.00 89 1011.1
20260830141021 73 116 0.0 0.0 0.00 0.00 0.00 89 1011.0
20260830140524 73 117 0.0 0.0 0.00 0.00 0.00 89 1011.0
20260830140027 73 119 0.0 0.0 0.00 0.00 0.00 89 1011.0
20260830135522 73 119 0.0 0.0 0.00 0.00 0.00 89 1011.0
20260830135039 73 121 0.0 0.0 0.00 0.00 0.00 89 1011.0
20260830134531 73 121 0.0 0.0 0.00 0.00 0.00 89 1010.9
20260830134049 73 121 0.0 1.0 0.00 0.00 0.00 88 1010.9
20260830133549 73 121 0.0 1.0 0.00 0.00 0.00 88 1010.8
20260830133041 73 121 0.0 4.0 0.00 0.00 0.00 88 1010.8
20260830132533 73 121 0.0 5.0 0.00 0.00 0.00 88 1010.8
20260830132052 73 122 0.0 5.0 0.00 0.00 0.00 89 1010.7
20260830131519 73 123 1.0 4.0 0.00 0.00 0.00 89 1010.6
20260830131023 73 123 0.0 4.0 0.00 0.00 0.00 89 1010.6
20260830130528 73 124 0.0 5.0 0.00 0.00 0.00 89 1010.6
20260830130022 73 124 2.0 5.0 0.00 0.00 0.00 89 1010.5
20260830125628 73 125 1.0 5.0 0.00 0.00 0.00 89 1010.5
20260830125103 73 126 2.0 4.0 0.00 0.00 0.00 90 1010.5
20260830124523 73 130 2.0 4.0 0.00 0.00 0.00 90 1010.4
20260830124047 74 130 1.0 3.0 0.00 0.00 0.00 90 1010.4
20260830123527 74 130 1.0 4.0 0.00 0.00 0.00 90 1010.4
20260830123021 74 131 1.0 4.0 0.00 0.00 0.00 90 1010.4
20260830122526 74 131 1.0 4.0 0.00 0.00 0.00 90 1010.4
20260830122027 74 133 0.0 2.0 0.00 0.00 0.00 90 1010.3
20260830121546 74 134 0.0 3.0 0.00 0.00 0.00 90 1010.3
20260830121027 74 134 0.0 3.0 0.00 0.00 0.00 91 1010.3
20260830120548 74 134 0.0 3.0 0.00 0.00 0.00 91 1010.3
20260830120028 74 134 0.0 4.0 0.00 0.00 0.00 91 1010.4
20260830115532 74 134 1.0 4.0 0.00 0.00 0.00 91 1010.3
20260830115019 74 162 0.0 3.0 0.00 0.00 0.00 91 1010.2
20260830114521 74 167 1.0 3.0 0.00 0.00 0.00 91 1010.2
20260830114043 74 167 1.0 3.0 0.00 0.00 0.00 91 1010.2
20260830113524 74 175 1.0 3.0 0.00 0.00 0.00 91 1010.3
20260830113024 74 175 0.0 3.0 0.00 0.00 0.00 91 1010.2
20260830112532 74 175 1.0 3.0 0.00 0.00 0.00 91 1010.2
20260830112028 74 175 0.0 3.0 0.00 0.00 0.00 91 1010.2
20260830111525 74 175 1.0 3.0 0.00 0.00 0.00 92 1010.3
20260830111031 74 175 2.0 3.0 0.00 0.00 0.00 92 1010.3
20260830110526 74 215 0.0 1.0 0.00 0.00 0.00 92 1010.3
20260830110028 74 215 0.0 1.0 0.00 0.00 0.00 92 1010.3
20260830105533 74 215 0.0 1.0 0.00 0.00 0.00 92 1010.3
20260830105034 74 215 0.0 1.0 0.00 0.00 0.00 92 1010.2
20260830104520 74 215 0.0 1.0 0.00 0.00 0.00 92 1010.2
20260830104045 74 215 0.0 2.0 0.00 0.00 0.00 92 1010.2
20260830103546 74 215 0.0 2.0 0.00 0.00 0.00 92 1010.2
20260830103026 74 215 0.0 1.0 0.00 0.00 0.00 92 1010.2
20260830102551 74 215 0.0 1.0 0.00 0.00 0.00 92 1010.1
20260830102032 74 215 0.0 1.0 0.00 0.00 0.00 92 1010.0
20260830101551 74 215 0.0 1.0 0.00 0.00 0.00 92 1010.0
20260830101023 74 215 0.0 1.0 0.00 0.00 0.00 91 1010.0
20260830100531 74 215 0.0 1.0 0.00 0.00 0.00 91 1010.0
20260830100028 74 216 0.0 2.0 0.00 0.00 0.00 92 1009.9
20260830095525 74 215 0.0 2.0 0.00 0.00 0.00 92 1009.9
20260830095051 74 215 0.0 2.0 0.00 0.00 0.00 92 1009.9
20260830094525 74 215 0.0 2.0 0.00 0.00 0.00 91 1010.0
20260830094031 74 216 1.0 2.0 0.00 0.00 0.00 92 1009.9